Location: Dannhausen
(51.8650°N, 10.1026°E)
Time: 00:35:55
(UTC+00:00)

Cosmos 2233 Rocket - Pass Details

Date: 13 August 2020
Orbit: 952 x 992 km, 82.9° (Epoch: 26 September)

Event Time Altitude Azimuth Distance (km) Brightness Sun altitude
Exits shadow 23:30:28 21° 245° (WSW) 2,062 5.4 -23.8°
Maximum altitude 23:33:47 34° 293° (WNW) 1,587 5.2 -23.8°
Drops below altitude 10° 23:39:29 10° 357° (N) 2,765 7.5 -23.8°
Sets 23:42:18 0° 7° (N) 3,715 8.5 -23.7°
